| time (UTC) | temp C | wind direction | speed KPH | gust KPH | rain 1hr cm | rain 24hr cm | rain mn cm | humidity % | barometer mb |
| 20260504081505 | 4 | 173 | 0.0 | 0.0 | 0.00 | 0.00 | 0.00 | 79 | 1011.8 |
| 20260504050112 | 4 | 173 | 0.0 | 0.0 | 0.00 | 0.00 | 0.00 | 79 | 1011.4 |
| 20260504044543 | 4 | 173 | 0.0 | 0.0 | 0.00 | 0.00 | 0.00 | 78 | 1011.4 |
| 20260504043042 | 4 | 173 | 0.0 | 0.0 | 0.00 | 0.00 | 0.00 | 77 | 1011.4 |
| 20260504041540 | 5 | 173 | 0.0 | 0.0 | 0.00 | 0.00 | 0.00 | 76 | 1011.2 |
| 20260504040041 | 5 | 173 | 0.0 | 0.0 | 0.00 | 0.00 | 0.00 | 76 | 1011.0 |
| 20260504034541 | 5 | 173 | 0.0 | 0.0 | 0.00 | 0.00 | 0.00 | 76 | 1010.9 |
| 20260504033032 | 5 | 173 | 0.0 | 0.0 | 0.00 | 0.00 | 0.00 | 76 | 1011.0 |
| 20260504031530 | 5 | 173 | 0.0 | 0.0 | 0.00 | 0.00 | 0.00 | 74 | 1010.9 |
| 20260504030037 | 5 | 173 | 0.0 | 0.0 | 0.00 | 0.00 | 0.00 | 73 | 1010.9 |
| 20260504024527 | 5 | 173 | 0.0 | 0.0 | 0.00 | 0.00 | 0.00 | 71 | 1010.9 |
| 20260504023028 | 6 | 173 | 0.0 | 0.0 | 0.00 | 0.00 | 0.00 | 70 | 1010.8 |
| 20260504021519 | 6 | 173 | 0.0 | 0.0 | 0.00 | 0.00 | 0.00 | 70 | 1010.8 |
| 20260504020017 | 6 | 173 | 0.0 | 0.0 | 0.00 | 0.00 | 0.00 | 69 | 1010.9 |
| 20260504014520 | 7 | 173 | 0.0 | 0.0 | 0.00 | 0.00 | 0.00 | 65 | 1010.8 |
| 20260504013017 | 7 | 173 | 0.0 | 0.0 | 0.00 | 0.00 | 0.00 | 65 | 1010.6 |
| 20260504011515 | 8 | 173 | 0.0 | 0.0 | 0.00 | 0.00 | 0.00 | 63 | 1010.6 |
| 20260504010014 | 8 | 173 | 0.0 | 0.0 | 0.00 | 0.00 | 0.00 | 57 | 1010.3 |
| 20260504004514 | 9 | 173 | 0.0 | 0.0 | 0.00 | 0.00 | 0.00 | 54 | 1010.2 |
| 20260504003013 | 10 | 173 | 0.0 | 0.0 | 0.00 | 0.00 | 0.00 | 53 | 1009.9 |
| 20260504001513 | 10 | 173 | 0.0 | 0.0 | 0.00 | 0.00 | 0.00 | 49 | 1009.8 |
| 20260504000012 | 11 | 173 | 0.0 | 0.0 | 0.00 | 0.00 | 0.00 | 46 | 1009.6 |
| 20260503234514 | 12 | 173 | 0.0 | 0.0 | 0.00 | 0.00 | 0.00 | 43 | 1009.4 |
| 20260503233011 | 12 | 173 | 0.0 | 8.0 | 0.00 | 0.00 | 0.00 | 42 | 1009.2 |
| 20260503231516 | 13 | 176 | 0.0 | 6.4 | 0.00 | 0.00 | 0.00 | 39 | 1009.1 |
| 20260503230009 | 13 | 200 | 1.6 | 9.7 | 0.00 | 0.00 | 0.00 | 36 | 1009.0 |
| 20260503224508 | 13 | 230 | 0.0 | 6.4 | 0.00 | 0.00 | 0.00 | 36 | 1008.9 |
| 20260503223007 | 13 | 251 | 0.0 | 8.0 | 0.00 | 0.00 | 0.00 | 34 | 1008.7 |
| 20260503221505 | 13 | 269 | 0.0 | 12.9 | 0.00 | 0.00 | 0.00 | 35 | 1008.8 |
| 20260503220006 | 14 | 200 | 0.0 | 16.1 | 0.00 | 0.00 | 0.00 | 33 | 1008.7 |
| 20260503214502 | 14 | 310 | 0.0 | 12.9 | 0.00 | 0.00 | 0.00 | 34 | 1008.8 |
| 20260503213123 | 14 | 134 | 0.0 | 14.5 | 0.00 | 0.00 | 0.00 | 35 | 1008.6 |
| 20260503211618 | 14 | 119 | 0.0 | 17.7 | 0.00 | 0.00 | 0.00 | 36 | 1008.7 |
| 20260503210053 | 15 | 205 | 0.0 | 11.3 | 0.00 | 0.00 | 0.00 | 33 | 1008.7 |
| 20260503204603 | 14 | 324 | 1.6 | 19.3 | 0.00 | 0.00 | 0.00 | 32 | 1008.7 |
| 20260503203049 | 14 | 178 | 1.6 | 20.9 | 0.00 | 0.00 | 0.00 | 32 | 1008.9 |
| 20260503201549 | 13 | 150 | 1.6 | 24.1 | 0.00 | 0.00 | 0.00 | 35 | 1009.0 |
| 20260503200048 | 14 | 360 | 0.0 | 12.9 | 0.00 | 0.00 | 0.00 | 37 | 1009.2 |
| 20260503194544 | 13 | 13 | 1.6 | 20.9 | 0.00 | 0.00 | 0.00 | 36 | 1009.2 |
| 20260503193045 | 13 | 266 | 4.8 | 20.9 | 0.00 | 0.00 | 0.00 | 34 | 1009.4 |
| 20260503191557 | 13 | 312 | 1.6 | 16.1 | 0.00 | 0.00 | 0.00 | 35 | 1009.3 |
| 20260503190045 | 13 | 360 | 8.0 | 24.1 | 0.00 | 0.00 | 0.00 | 35 | 1009.3 |
| 20260503184546 | 13 | 219 | 6.4 | 22.5 | 0.00 | 0.00 | 0.00 | 35 | 1009.4 |
| 20260503183044 | 13 | 148 | 1.6 | 25.7 | 0.00 | 0.00 | 0.00 | 37 | 1009.7 |
| 20260503181537 | 12 | 345 | 8.0 | 29.0 | 0.00 | 0.00 | 0.00 | 38 | 1009.7 |
| 20260503180036 | 12 | 206 | 3.2 | 20.9 | 0.00 | 0.00 | 0.00 | 42 | 1009.8 |
| 20260503174541 | 12 | 240 | 1.6 | 16.1 | 0.00 | 0.00 | 0.00 | 39 | 1010.0 |
| 20260503173031 | 12 | 23 | 4.8 | 20.9 | 0.00 | 0.00 | 0.00 | 43 | 1010.1 |
| 20260503171533 | 11 | 200 | 3.2 | 30.6 | 0.00 | 0.00 | 0.00 | 43 | 1010.2 |